Regional Weather Roundup
Issued by NWS

Home | Current Version | Previous Version | Text Only | Print | Product List | Glossary Off
Versions: 1 2 3 4 5 6 7 8 9 10 11 12 13 14 15 16 17 18 19 20 21 22 23 24 25 26 27 28 29 30 31 32 33 34 35 36 37 38 39 40 41 42 43 44 45 46 47 48 49 50

000
ASUS45 KCYS 172010
RWRWY

WYOMING REGIONAL WEATHER ROUNDUP
NATIONAL WEATHER SERVICE CHEYENNE WY
100 PM MST WED DEC 17 2014

NOTE:  "FAIR" INDICATES FEW OR NO CLOUDS BELOW 12,000 FEET
WITH NO SIGNIFICANT WEATHER AND/OR OBSTRUCTIONS TO VISIBILITY.

WYZ001-172100-
YELLOWSTONE NATIONAL PARK

CITY           SKY/WX    TMP DP  RH WIND       PRES   REMARKS
LK YELLOWSTONE   N/A     25  17  72 MISG      29.94F
W YELLOWSTONE  NOT AVBL

$$
WYZ002>013-054>058-071-098>099-172100-
NORTHERN WYOMING

CITY           SKY/WX    TMP DP  RH WIND       PRES   REMARKS
JACKSON        PTSUNNY   30  27  86 CALM      29.95F
CODY           CLOUDY    25  21  86 NE8       29.89F WCI  16
GREYBULL       FAIR      23  16  74 SW3       29.96F
WORLAND        FAIR      17  11  77 CALM      29.95F
SHERIDAN       PTSUNNY   21  16  81 S3        29.94F
BUFFALO        FAIR      35  25  66 N5        29.91S WCI  31
GILLETTE       FAIR      29  21  72 W6        29.91F WCI  23
HULETT           N/A    N/A N/A N/A MISG        N/A
NEWCASTLE      CLOUDY    21  21 100 SE3       29.95F FOG

$$
WYZ014>020-022>026-101>103-172100-
CENTRAL WYOMING

CITY           SKY/WX    TMP DP  RH WIND       PRES   REMARKS
BIG PINEY      FAIR      33  19  56 CALM      29.95F
PINEDALE       FAIR      32  21  64 W3        29.95F
DUBOIS         MOCLDY    34  16  47 NW15G22   29.89F WCI  24
LANDER         FAIR      16  10  77 CALM      29.92F
RIVERTON       FOG       19  15  84 VRB3      29.94F VSB 1/4
CASPER         FAIR      32  22  66 SW17      29.90F WCI  21
DOUGLAS        FAIR      36  22  56 NW5       29.90F WCI  32

$$
WYZ021-027>030-104>119-172100-
SOUTHERN WYOMING

CITY           SKY/WX    TMP DP  RH WIND       PRES   REMARKS
EVANSTON       PTSUNNY   35  18  49 W7        29.94F WCI  29
KEMMERER       FAIR      34  18  51 W10       29.95S WCI  26
FORT BRIDGER   CLOUDY    35  23  61 CALM      29.98S
ROCK SPRINGS   FAIR      25  18  74 CALM      29.96F
DIXON          MOCLDY    27  21  77 CALM      29.99F
RAWLINS        FAIR      32  21  64 SW14      29.93F WCI  22
SARATOGA       FAIR      30  23  74 S3        29.94F
LARAMIE        FAIR      34  21  59 W7        29.90F WCI  28
CHEYENNE       FAIR      46  21  37 S7        29.88F
TORRINGTON     FAIR      23  19  85 SE7       29.93F WCI  15
PINE BLUFFS    FAIR      41  28  60 CALM      29.90F

$$


USA.gov is the U.S. government's official web portal to all federal, state and local government web resources and services.